Location: Blackwall
(51.5097°N, 0.0016°W)
Time: 23:21:03
(UTC+00:00)

USA 186 - Pass Details

Date: 15 May 2026
Orbit: 338 x 359 km, 97.0° (Epoch: 19 May)

Event Time Altitude Azimuth Distance (km) Brightness Sun altitude
Exits shadow 21:12:57 - 192° (SSW) 1,349 4.0 -10.9°
Reaches altitude 10° 21:13:09 10° 194° (SSW) 1,274 3.8 -11.0°
Maximum altitude 21:15:40 34° 262° (W) 586 2.8 -11.2°
Drops below altitude 10° 21:18:14 10° 330° (NNW) 1,298 5.7 -11.4°
Sets 21:20:16 0° 340° (NNW) 2,141 6.9 -11.6°
